RH
5 5 5 5 5 5 5 5 5 5 6 7 7 7 6 6 5 5 4 4 4 4 4 4 3 4 3 3 4 5 6 7 8 8 8 8 8 10 11 8 10 12 11 12 13 14 14 15 18 26 37 38 41 52 55 58 65 67 72 77 82 86 85 82 79 77 80 86 89 87 87 86 90 90 90 90 88 86 85 81 79 80 77 72 70 70 66 60
6 6 5 5 5 6 5 5 5 5 6 7 7 7 7 6 6 5 5 4 4 4 4 4 4 4 3 4 3 4 5 6 8 8 8 8 8 11 12 10 9 10 10 10 11 12 13 12 17 28 33 34 38 45 49 54 61 66 72 78 81 83 82 80 78 76 78 85 88 84 85 86 87 90 90 90 90 89 88 82 78 79 77 71 69 70 67 61
7 7 6 6 5 5 6 5 5 5 6 7 7 7 7 6 6 6 5 5 4 4 4 3 3 4 4 3 3 3 4 7 11 11 10 9 8 10 13 12 9 9 9 7 9 11 13 13 18 27 29 30 37 44 49 54 60 63 70 78 79 77 78 79 77 77 80 84 86 85 86 87 87 89 89 89 89 90 88 81 76 76 75 70 66 66 65 62
9 9 8 7 6 6 6 5 5 5 6 7 7 7 7 6 6 5 5 5 5 4 4 4 3 3 3 3 4 3 4 11 14 12 12 11 10 10 12 14 11 9 8 7 8 11 15 16 21 26 25 29 37 44 49 52 60 65 69 74 76 74 75 77 73 75 81 82 84 86 86 87 87 88 88 86 88 88 83 78 78 75 72 70 65 63 62 61
11 10 10 9 9 7 7 6 5 6 6 7 7 7 7 6 6 5 5 5 4 5 4 4 4 3 3 3 4 3 5 13 16 14 12 11 11 12 12 14 13 10 8 7 7 11 16 19 22 24 25 32 39 45 49 52 59 65 65 67 72 72 73 75 71 75 80 79 84 86 85 84 83 87 85 82 85 83 76 75 80 78 72 71 67 62 59 58
11 11 11 11 11 10 8 7 6 6 6 7 7 7 7 7 6 6 5 5 4 4 4 4 4 4 4 3 3 3 6 12 16 17 14 11 11 12 13 14 13 12 9 7 7 10 16 19 20 22 26 34 40 45 50 54 58 61 60 62 66 67 70 73 71 74 77 76 81 82 82 82 83 88 84 82 83 79 78 79 82 82 76 74 70 64 58 56
13 12 12 12 12 12 11 10 8 8 7 7 8 8 8 7 6 6 5 5 5 5 4 4 4 4 4 4 4 5 7 11 14 16 15 14 12 11 13 14 13 13 11 8 7 8 14 18 19 21 26 35 39 42 50 55 58 58 57 59 62 62 65 71 68 69 72 74 78 78 80 81 83 87 84 85 85 82 84 85 83 82 79 76 71 65 60 57
14 13 13 12 13 13 12 12 10 10 9 9 8 8 8 8 7 6 6 6 6 5 5 4 4 4 5 5 5 7 8 9 11 13 14 14 14 11 12 15 14 13 13 9 6 8 12 16 18 21 26 34 38 41 47 52 55 55 56 58 61 61 63 68 67 63 67 73 77 79 79 81 83 83 84 86 86 84 85 84 83 81 79 75 71 66 61 59
14 13 13 13 13 13 13 13 12 11 11 10 10 9 9 9 8 7 7 7 6 6 6 6 5 5 5 5 7 10 10 9 10 11 12 13 13 12 12 14 15 14 14 10 7 8 10 13 18 22 27 34 38 40 42 46 50 50 51 53 55 58 60 65 67 63 66 72 76 79 80 82 81 80 83 82 82 83 82 83 83 80 78 74 71 66 61 59
13 13 13 13 13 13 13 13 13 12 12 12 11 10 10 9 8 7 7 7 7 7 8 8 7 7 7 7 9 12 11 10 12 10 11 12 13 13 12 13 14 14 15 11 8 8 10 15 20 26 32 36 38 38 38 41 45 44 44 45 45 50 57 63 66 66 68 70 72 77 81 81 79 79 81 79 78 81 80 81 81 78 76 73 71 66 62 60
13 13 14 14 14 14 13 13 13 13 12 13 13 11 10 10 8 8 7 7 8 9 10 9 8 8 8 8 10 12 11 11 11 10 11 13 12 12 12 12 14 15 16 12 9 9 14 22 26 30 34 36 37 38 38 39 39 39 39 40 39 43 55 63 65 67 69 68 70 75 79 79 78 79 78 75 77 80 80 79 78 76 74 72 72 68 63 60
13 13 14 15 15 15 14 13 13 13 13 14 14 12 11 10 9 8 7 8 9 10 11 10 9 9 9 9 9 9 11 11 10 10 11 11 12 12 10 10 12 15 16 14 10 10 18 27 28 27 29 32 33 35 36 36 35 34 34 35 36 40 52 61 62 64 64 65 66 68 74 77 76 76 73 71 75 79 80 79 77 76 74 73 73 69 64 61
13 13 13 14 15 15 15 14 14 14 14 15 14 13 12 11 10 9 8 9 10 10 11 11 9 10 12 11 10 9 10 9 9 10 9 9 11 12 11 10 12 15 16 14 11 13 22 29 28 25 26 27 28 30 31 29 30 32 30 30 31 35 46 54 56 59 59 60 60 60 69 74 73 74 71 69 73 77 79 77 76 75 74 73 71 69 66 62
14 13 13 13 13 15 15 15 15 15 15 16 15 14 12 11 11 9 8 9 10 10 11 13 12 14 16 13 11 11 10 9 8 8 8 8 10 12 11 11 14 16 16 15 12 17 27 30 28 24 24 25 25 27 27 25 26 30 29 29 28 30 39 47 48 50 54 57 56 55 63 67 66 69 69 69 72 75 76 74 74 73 71 71 70 70 68 64
14 13 12 12 12 13 14 14 15 15 16 17 16 15 13 12 13 10 9 9 10 10 11 15 17 17 18 15 13 13 11 10 9 8 8 8 9 10 10 11 15 16 17 14 11 20 28 28 27 24 23 24 25 25 25 23 23 25 27 29 30 28 34 43 44 42 46 52 54 53 57 60 59 62 64 66 69 72 73 72 72 73 70 70 70 70 70 68
13 12 12 11 10 11 13 13 13 15 17 18 17 15 13 13 13 10 9 10 10 11 10 15 17 18 22 20 18 17 12 11 10 9 8 7 8 10 10 11 15 17 17 13 11 20 29 28 27 25 24 25 25 24 24 23 21 22 23 25 27 28 33 40 42 39 40 45 49 48 53 58 56 56 60 63 67 71 70 69 71 72 70 70 69 69 70 70
12 13 13 12 10 10 11 13 14 16 17 18 18 16 14 14 14 12 11 11 13 12 12 15 16 19 22 19 18 17 13 10 9 9 8 7 8 9 9 12 16 18 17 14 12 20 28 29 28 26 25 25 24 23 24 24 22 20 19 19 21 25 31 35 38 38 37 41 44 45 51 57 54 53 58 60 63 67 68 68 70 70 70 69 69 68 69 70
11 13 14 13 12 10 11 13 15 17 18 19 18 17 16 15 15 15 13 13 14 15 17 18 20 23 21 16 16 15 13 11 10 9 9 8 8 9 9 12 16 18 18 16 15 20 26 29 28 27 25 24 24 24 24 24 21 18 17 17 16 20 24 29 36 40 40 40 44 47 50 54 54 54 56 58 59 62 63 64 67 70 70 69 69 68 68 69
10 12 14 13 13 11 12 16 18 19 19 19 18 17 16 15 15 15 14 13 14 19 23 21 22 26 20 16 15 13 12 11 10 10 10 9 9 11 12 13 17 18 19 19 19 22 25 28 30 29 26 24 24 24 23 21 19 17 16 17 17 17 20 25 32 40 42 42 42 43 46 52 55 55 57 58 57 59 60 61 65 68 69 68 69 69 67 68
9 11 13 13 13 12 14 17 21 21 21 20 19 17 16 16 17 17 14 14 13 17 22 18 19 22 18 15 15 12 13 11 9 11 10 10 13 16 16 16 20 20 19 22 24 25 26 29 31 28 25 23 22 24 23 20 18 17 17 20 20 19 19 21 25 34 39 40 40 37 39 51 57 55 58 60 59 59 58 59 63 65 67 67 68 69 66 65
9 10 12 14 14 14 14 18 22 24 23 22 21 20 18 18 18 18 17 17 14 13 15 13 14 17 16 14 13 12 12 11 10 11 10 11 14 17 19 20 23 21 18 20 24 25 26 29 28 24 23 21 20 21 21 20 18 17 19 21 20 19 18 17 21 29 34 37 40 39 40 51 57 55 57 59 57 57 55 56 58 60 64 64 67 69 66 63
10 11 13 15 16 16 16 18 22 24 25 25 23 22 20 19 19 18 19 19 16 13 12 12 11 13 12 11 12 10 10 11 11 11 11 12 11 13 18 22 25 23 19 21 25 27 27 26 22 19 21 21 20 21 21 21 18 18 20 21 19 17 16 17 20 26 36 42 41 41 44 50 55 54 55 56 54 53 52 53 55 57 61 63 67 69 65 62
12 12 13 16 18 19 18 19 22 23 25 26 24 23 21 20 20 18 18 19 17 13 12 12 11 11 10 9 9 8 7 9 10 10 12 14 12 12 18 23 24 25 23 22 24 28 29 24 19 17 17 18 20 21 22 23 21 20 21 21 18 15 15 18 21 25 38 54 56 53 55 55 58 57 55 55 53 52 53 55 56 57 60 64 66 66 64 62
12 12 13 15 17 20 21 21 22 23 24 24 22 22 22 21 21 19 18 18 17 15 12 13 13 12 12 10 9 8 8 9 10 12 12 13 14 16 19 21 22 24 25 23 23 26 27 21 18 19 18 18 19 20 22 23 22 20 19 19 17 15 16 18 24 26 29 46 56 60 67 65 60 60 60 59 56 53 54 56 59 60 61 66 67 65 63 63
12 12 13 14 16 18 20 22 24 24 24 23 21 22 22 21 21 19 19 19 20 18 15 14 14 13 13 11 10 10 10 10 10 14 15 14 15 17 19 20 20 22 22 21 22 23 22 19 19 22 21 20 21 20 21 21 21 19 15 17 16 15 16 17 25 26 22 33 43 50 66 69 60 60 63 61 57 55 56 57 59 61 62 64 66 65 62 62
14 15 16 15 16 17 18 21 25 25 24 25 24 23 22 21 20 19 20 23 22 21 18 17 17 15 14 13 11 10 11 11 11 14 15 13 14 17 18 18 19 21 21 22 23 22 20 17 18 21 22 22 23 21 19 19 20 19 15 16 16 14 16 18 23 25 26 35 44 49 60 64 63 66 65 60 57 56 58 58 57 59 62 64 64 65 62 61
19 20 20 18 17 19 19 20 23 24 24 26 26 24 22 21 20 19 25 30 26 22 20 18 18 18 17 15 11 10 13 13 11 12 12 12 12 13 17 19 19 21 21 20 23 23 21 20 19 20 22 23 23 21 20 18 18 18 16 15 17 16 16 20 22 23 25 31 39 47 54 58 61 60 60 61 61 60 59 58 57 57 60 63 62 62 62 61
23 23 23 21 19 20 20 19 22 23 24 26 26 24 22 21 20 19 28 36 31 26 23 18 18 19 19 17 12 11 14 13 12 13 12 13 13 11 13 17 18 21 20 17 22 24 20 21 21 21 23 24 23 22 21 20 18 17 16 17 19 17 16 20 21 20 25 26 29 34 39 48 52 47 50 60 61 59 55 53 54 54 57 62 61 60 59 59
24 25 24 24 22 22 21 21 24 25 24 25 25 24 22 21 21 22 30 37 32 28 28 24 21 20 19 18 16 14 14 13 13 14 14 14 14 11 11 12 15 19 18 14 18 22 20 19 21 21 23 24 23 22 21 21 20 17 16 18 21 21 19 19 20 21 23 24 26 26 25 32 39 41 50 60 59 53 47 47 51 52 56 61 64 63 59 58
24 26 26 26 25 24 23 22 25 25 24 25 24 24 22 20 25 31 35 35 31 28 28 27 25 22 19 18 17 16 16 15 14 14 15 14 12 12 11 10 11 15 18 16 15 20 20 18 20 21 21 22 22 22 21 20 20 19 18 18 20 24 23 21 24 24 23 25 28 26 23 23 26 33 43 48 46 40 37 43 49 51 54 58 61 62 60 58
26 27 28 29 29 27 26 25 26 27 25 25 24 24 21 23 34 42 37 30 29 28 26 27 26 25 22 20 19 17 17 17 16 14 15 14 13 14 14 14 13 13 18 18 14 18 20 18 20 20 20 21 20 21 20 19 19 18 19 19 20 25 26 25 26 22 20 27 28 25 24 23 22 27 33 33 31 31 33 38 45 47 50 52 55 57 59 59
28 29 30 30 30 30 29 28 28 27 26 26 24 22 25 34 42 42 35 29 31 31 27 25 25 24 23 21 20 19 18 18 17 16 16 15 15 17 19 19 16 15 18 17 14 16 20 20 20 19 20 21 20 21 21 19 19 18 20 21 22 25 26 27 29 24 22 23 22 23 24 25 24 25 28 29 28 30 31 34 39 43 46 49 52 54 57 60
29 29 31 31 32 32 31 30 29 27 27 26 25 27 35 44 42 36 32 31 32 32 29 27 26 27 26 23 22 21 19 18 17 17 17 16 19 21 22 20 18 18 20 19 17 17 19 21 21 18 20 22 20 22 23 21 19 19 21 22 23 26 26 27 29 26 23 20 17 19 23 26 26 22 23 26 25 25 28 32 35 38 41 46 51 53 56 58
29 30 33 33 34 33 32 31 29 29 29 28 32 39 42 43 39 33 33 31 30 30 29 29 29 31 29 26 24 22 20 19 17 18 19 18 22 25 23 22 20 20 21 22 22 19 18 21 22 19 21 21 20 21 23 23 21 19 20 21 23 25 25 27 28 24 21 20 17 18 23 28 24 19 21 25 24 23 26 31 33 31 34 41 48 53 56 57
29 31 33 34 34 33 32 32 31 33 34 34 40 45 42 38 37 36 35 34 34 33 30 30 30 31 29 25 25 24 22 21 19 20 22 21 25 27 25 24 23 22 22 24 24 21 19 19 20 20 20 20 20 19 19 21 23 23 21 20 22 22 22 23 26 24 21 20 20 20 24 26 22 19 21 23 23 22 24 28 29 28 29 34 42 48 54 57
31 31 31 31 31 32 34 36 37 39 39 38 44 46 40 36 37 37 36 35 37 35 31 32 32 32 29 26 26 25 22 21 21 22 24 22 24 26 25 24 25 24 24 24 24 22 21 19 18 21 20 18 20 21 20 21 25 27 24 22 22 21 21 22 24 23 21 21 23 21 20 20 18 18 18 16 16 18 20 23 25 28 29 30 33 40 48 55
32 32 30 30 31 34 38 42 43 44 42 43 46 42 35 34 35 35 36 37 39 34 32 36 34 31 28 27 27 25 22 22 22 23 24 24 24 25 25 24 25 25 24 24 24 22 22 21 19 20 21 19 18 20 21 20 25 29 27 27 25 22 23 25 25 26 26 27 26 21 20 21 20 20 18 15 13 15 19 21 22 26 28 26 28 33 42 51
33 33 31 31 33 37 42 45 47 46 44 46 47 42 38 36 34 34 37 41 40 35 36 38 34 29 28 28 27 24 23 24 24 24 24 24 26 26 24 25 25 24 24 24 24 22 21 22 21 19 19 20 18 18 20 20 21 25 27 28 29 28 29 28 26 26 29 30 27 22 22 23 22 23 22 21 19 19 23 25 24 24 24 24 26 29 34 44
34 34 32 32 35 38 43 47 47 47 47 47 47 47 46 40 35 35 36 39 38 36 38 37 32 31 30 29 29 28 26 26 26 26 25 25 28 27 24 24 24 23 23 23 24 23 21 23 23 20 20 22 21 20 23 23 22 23 26 29 30 31 32 32 29 27 29 33 31 29 27 26 29 31 30 30 30 26 27 30 29 26 24 23 24 26 28 34
34 35 33 32 34 37 41 42 43 48 53 50 44 46 44 36 34 34 32 32 35 37 39 36 31 30 30 30 31 30 29 27 27 28 28 28 30 29 27 26 25 23 22 22 23 24 23 23 24 23 24 26 26 25 25 25 25 25 30 34 34 35 35 33 31 28 28 32 34 33 30 32 40 42 37 36 35 28 26 30 31 27 25 25 24 25 27 30
36 37 35 31 32 35 37 38 40 45 48 45 40 39 37 33 31 30 26 25 28 32 34 34 31 30 29 30 32 32 30 29 30 30 31 31 31 32 31 30 28 26 24 24 24 24 25 24 24 28 31 29 28 28 27 27 27 27 33 38 39 38 36 34 33 31 27 28 31 30 29 36 48 49 43 41 38 30 25 26 29 25 24 26 26 26 29 31
40 39 34 32 33 33 34 38 39 37 35 35 36 36 35 33 30 27 25 24 24 25 26 28 29 29 29 29 32 33 31 31 30 30 32 34 33 32 32 30 30 28 27 29 27 26 27 26 24 27 33 34 32 30 30 30 31 32 35 39 37 35 33 34 37 36 30 29 29 26 26 35 44 46 48 47 42 37 30 28 30 29 26 27 29 30 31 32
43 41 35 33 33 33 34 36 35 32 29 28 29 31 31 30 28 26 24 24 24 24 24 24 26 27 28 27 29 31 32 32 32 30 32 34 34 32 31 29 28 28 28 30 30 28 28 30 27 25 28 33 34 32 32 33 35 38 40 38 37 37 35 34 37 38 37 39 39 31 25 31 35 38 48 52 46 41 38 35 34 32 30 29 30 32 32 31
41 43 37 33 33 34 35 35 35 34 32 28 26 27 27 25 24 25 24 24 26 25 24 25 25 26 27 26 25 25 28 31 32 32 34 35 34 32 30 29 27 27 28 30 30 28 29 32 33 31 31 35 37 40 40 37 37 42 43 40 39 41 39 37 39 43 45 46 46 39 33 34 33 33 44 54 51 47 45 43 40 36 34 32 32 35 36 34
40 42 39 37 35 36 37 36 36 36 35 32 29 28 27 26 25 25 24 25 27 26 25 26 26 25 26 26 23 23 25 26 29 31 33 34 33 31 29 28 26 25 28 30 28 28 29 31 33 36 38 39 45 53 51 44 41 43 43 41 41 43 42 41 43 47 47 45 46 43 38 40 40 37 43 53 56 55 52 49 46 43 38 34 32 37 41 40
44 41 39 40 38 37 38 38 36 37 37 37 37 33 30 29 27 26 26 26 27 26 26 27 27 26 26 27 25 25 26 26 26 27 29 31 31 29 28 27 25 25 27 28 27 27 30 31 31 35 35 33 39 49 49 44 41 41 41 40 41 44 44 43 46 48 46 45 47 46 40 41 44 44 46 52 57 60 59 54 48 45 44 43 41 43 48 52
46 43 40 42 40 38 39 38 37 40 39 39 40 37 33 32 29 28 28 28 29 29 28 29 28 28 30 29 27 27 27 26 26 25 26 27 26 25 25 24 24 25 25 26 28 30 30 30 29 31 30 27 29 36 42 42 39 38 40 39 40 44 45 44 46 46 43 44 49 48 41 40 46 51 52 54 57 62 63 61 55 47 46 51 54 56 57 57
45 45 41 40 39 38 41 40 39 41 42 41 42 40 38 35 32 31 31 30 31 31 32 34 32 32 33 32 33 34 32 32 31 29 28 27 25 25 24 24 23 24 23 25 27 29 31 33 31 29 29 26 24 28 35 41 39 37 39 41 41 43 45 44 45 44 43 44 47 46 41 42 52 59 60 58 60 64 66 68 67 58 51 50 51 55 58 56
44 46 44 43 43 43 45 45 43 43 43 44 46 42 39 37 34 34 34 34 34 32 32 37 37 35 35 34 38 41 40 39 38 35 32 30 29 30 31 28 25 23 24 26 26 27 32 36 33 31 32 31 27 26 29 36 41 41 40 40 40 40 41 42 43 43 43 43 45 45 43 45 53 62 65 62 62 67 65 64 70 70 62 57 52 50 53 55
42 46 46 47 47 45 44 45 46 46 45 46 47 44 40 39 37 35 34 35 37 34 31 36 37 36 35 36 38 40 40 40 40 38 36 33 34 37 36 33 30 28 27 29 30 29 33 37 35 32 34 33 30 29 28 31 40 44 43 42 40 38 39 41 43 44 44 43 45 47 46 47 51 58 64 63 63 67 66 61 67 74 68 65 66 61 56 55
39 41 42 45 45 40 38 39 42 43 41 41 43 40 39 40 37 35 35 35 35 33 32 33 34 35 36 36 37 39 38 38 38 38 37 35 36 38 38 36 34 32 32 33 36 34 35 40 38 37 39 35 30 31 31 29 32 36 41 43 41 38 39 41 41 42 44 43 42 45 51 52 52 54 58 59 60 64 67 66 70 75 70 65 69 70 66 61
36 36 35 38 40 37 35 35 37 37 35 36 38 37 37 39 36 34 37 36 33 31 31 31 32 35 38 38 38 39 38 36 35 36 37 38 38 38 37 35 32 32 33 34 38 42 44 44 42 42 43 39 35 35 34 33 32 30 33 40 43 45 46 45 46 47 50 48 44 48 56 55 51 51 54 58 59 61 65 67 69 74 74 69 66 66 66 64